Time,TemperatureF,DewpointF,PressureIn,WindDirection,WindDirectionDegrees,WindSpeedMPH,WindSpeedGustMPH,Humidity,HourlyPrecipIn,Conditions,Clouds,dailyrainin,SoftwareType,DateUTC
2013-03-29 00:03:00,56.2,50.8,30.09,NNW,344,4.0,4.0,82,0.00,,,0.00,Wunderground v.1.15,2013-03-29 07:03:00,
2013-03-29 00:09:00,56.1,50.7,30.09,NNW,344,2.0,4.0,82,0.00,,,0.00,Wunderground v.1.15,2013-03-29 07:09:00,
2013-03-29 00:14:00,56.0,50.6,30.09,NNW,344,3.0,4.0,82,0.00,,,0.00,Wunderground v.1.15,2013-03-29 07:14:00,
2013-03-29 00:20:00,55.7,50.3,30.09,NNW,342,3.0,3.0,82,0.00,,,0.00,Wunderground v.1.15,2013-03-29 07:20:00,
2013-03-29 00:26:00,55.5,50.4,30.09,NNW,333,0.0,4.0,83,0.00,,,0.00,Wunderground v.1.15,2013-03-29 07:26:00,
2013-03-29 00:32:00,55.3,50.2,30.09,NNW,335,2.0,5.0,83,0.00,,,0.00,Wunderground v.1.15,2013-03-29 07:32:00,
2013-03-29 00:38:00,55.2,50.1,30.09,NNW,330,3.0,5.0,83,0.00,,,0.00,Wunderground v.1.15,2013-03-29 07:38:00,
2013-03-29 00:43:00,55.2,50.1,30.09,NNW,328,3.0,4.0,83,0.00,,,0.00,Wunderground v.1.15,2013-03-29 07:43:00,
2013-03-29 00:49:00,55.1,50.0,30.09,NNW,329,2.0,4.0,83,0.00,,,0.00,Wunderground v.1.15,2013-03-29 07:49:00,
2013-03-29 00:55:00,55.0,49.9,30.09,NNW,330,3.0,3.0,83,0.00,,,0.00,Wunderground v.1.15,2013-03-29 07:55:00,
2013-03-29 01:01:00,54.9,49.8,30.09,North,350,2.0,3.0,83,0.00,,,0.00,Wunderground v.1.15,2013-03-29 08:01:00,
2013-03-29 01:06:00,54.9,49.8,30.09,North,355,2.0,5.0,83,0.00,,,0.00,Wunderground v.1.15,2013-03-29 08:06:00,
2013-03-29 01:12:00,54.9,49.8,30.09,North,355,3.0,5.0,83,0.00,,,0.00,Wunderground v.1.15,2013-03-29 08:12:00,
2013-03-29 01:18:00,54.9,49.8,30.09,North,355,2.0,6.0,83,0.00,,,0.00,Wunderground v.1.15,2013-03-29 08:18:00,
2013-03-29 01:24:00,54.9,49.8,30.09,North,355,4.0,4.0,83,0.00,,,0.00,Wunderground v.1.15,2013-03-29 08:24:00,
2013-03-29 01:30:00,54.9,49.8,30.09,North,355,4.0,4.0,83,0.00,,,0.00,Wunderground v.1.15,2013-03-29 08:30:00,
2013-03-29 01:36:00,54.9,49.8,30.09,NNW,348,3.0,6.0,83,0.00,,,0.00,Wunderground v.1.15,2013-03-29 08:36:00,
2013-03-29 01:42:00,54.9,49.8,30.09,North,349,1.0,3.0,83,0.00,,,0.00,Wunderground v.1.15,2013-03-29 08:42:00,
2013-03-29 01:48:00,54.8,49.7,30.09,North,355,2.0,6.0,83,0.00,,,0.00,Wunderground v.1.15,2013-03-29 08:48:00,
2013-03-29 01:53:00,54.8,49.7,30.09,NW,313,3.0,3.0,83,0.00,,,0.00,Wunderground v.1.15,2013-03-29 08:53:00,
2013-03-29 01:58:00,54.8,49.7,30.09,NNW,348,2.0,4.0,83,0.00,,,0.00,Wunderground v.1.15,2013-03-29 08:58:00,
2013-03-29 02:03:00,54.8,49.7,30.09,NNW,347,4.0,4.0,83,0.00,,,0.00,Wunderground v.1.15,2013-03-29 09:03:00,
2013-03-29 02:08:00,54.8,49.7,30.09,NNW,347,3.0,5.0,83,0.00,,,0.00,Wunderground v.1.15,2013-03-29 09:08:00,
2013-03-29 02:13:00,54.7,49.6,30.09,NNW,346,2.0,5.0,83,0.00,,,0.00,Wunderground v.1.15,2013-03-29 09:13:00,
2013-03-29 02:18:00,54.7,49.6,30.09,NNW,342,3.0,6.0,83,0.00,,,0.00,Wunderground v.1.15,2013-03-29 09:18:00,
2013-03-29 02:23:00,54.6,49.5,30.09,NW,324,2.0,4.0,83,0.00,,,0.00,Wunderground v.1.15,2013-03-29 09:23:00,
2013-03-29 02:28:00,54.6,49.5,30.09,NW,325,2.0,4.0,83,0.00,,,0.00,Wunderground v.1.15,2013-03-29 09:28:00,
2013-03-29 02:33:00,54.6,49.5,30.09,NNW,329,2.0,5.0,83,0.00,,,0.00,Wunderground v.1.15,2013-03-29 09:33:00,
2013-03-29 02:38:00,54.6,49.2,30.09,NNW,340,4.0,7.0,82,0.00,,,0.00,Wunderground v.1.15,2013-03-29 09:38:00,
2013-03-29 02:43:00,54.6,49.2,30.09,North,349,5.0,5.0,82,0.00,,,0.00,Wunderground v.1.15,2013-03-29 09:43:00,
2013-03-29 02:48:00,54.8,49.4,30.09,NNW,348,3.0,7.0,82,0.00,,,0.00,Wunderground v.1.15,2013-03-29 09:48:00,
2013-03-29 02:53:00,54.8,49.1,30.08,NNW,347,4.0,5.0,81,0.00,,,0.00,Wunderground v.1.15,2013-03-29 09:53:00,
2013-03-29 02:58:00,54.8,49.1,30.08,NNW,348,2.0,6.0,81,0.00,,,0.00,Wunderground v.1.15,2013-03-29 09:58:00,
2013-03-29 03:03:00,54.8,48.7,30.08,NNW,344,2.0,6.0,80,0.00,,,0.00,Wunderground v.1.15,2013-03-29 10:03:00,
2013-03-29 03:08:00,54.9,48.8,30.08,NNW,337,2.0,7.0,80,0.00,,,0.00,Wunderground v.1.15,2013-03-29 10:08:00,
2013-03-29 03:13:00,54.9,48.8,30.08,NNW,340,0.0,6.0,80,0.00,,,0.00,Wunderground v.1.15,2013-03-29 10:13:00,
2013-03-29 03:18:00,54.9,48.8,30.08,NNW,340,2.0,6.0,80,0.00,,,0.00,Wunderground v.1.15,2013-03-29 10:18:00,
2013-03-29 03:23:00,54.8,48.7,30.08,NNW,340,2.0,4.0,80,0.00,,,0.00,Wunderground v.1.15,2013-03-29 10:23:00,
2013-03-29 03:28:00,54.8,48.4,30.08,NNW,341,3.0,6.0,79,0.00,,,0.00,Wunderground v.1.15,2013-03-29 10:28:00,
2013-03-29 03:33:00,54.8,48.4,30.08,NNW,342,4.0,5.0,79,0.00,,,0.00,Wunderground v.1.15,2013-03-29 10:33:00,
2013-03-29 03:38:00,54.7,48.3,30.08,NNW,342,0.0,5.0,79,0.00,,,0.00,Wunderground v.1.15,2013-03-29 10:38:00,
2013-03-29 03:43:00,54.6,48.2,30.08,NNW,342,2.0,6.0,79,0.00,,,0.00,Wunderground v.1.15,2013-03-29 10:43:00,
2013-03-29 03:48:00,54.5,48.1,30.08,NNW,342,1.0,6.0,79,0.00,,,0.00,Wunderground v.1.15,2013-03-29 10:48:00,
2013-03-29 03:53:00,54.4,48.0,30.08,NNW,342,2.0,4.0,79,0.00,,,0.00,Wunderground v.1.15,2013-03-29 10:53:00,
2013-03-29 03:59:00,54.3,47.9,30.08,NNW,342,1.0,5.0,79,0.00,,,0.00,Wunderground v.1.15,2013-03-29 10:59:00,
2013-03-29 04:04:00,54.2,48.2,30.08,NNW,342,1.0,3.0,80,0.00,,,0.00,Wunderground v.1.15,2013-03-29 11:04:00,
2013-03-29 04:09:00,54.2,48.2,30.08,NNW,342,2.0,4.0,80,0.00,,,0.00,Wunderground v.1.15,2013-03-29 11:09:00,
2013-03-29 04:14:00,54.1,48.1,30.08,NNW,342,1.0,5.0,80,0.00,,,0.00,Wunderground v.1.15,2013-03-29 11:14:00,
2013-03-29 04:19:00,54.0,48.0,30.08,NNW,342,3.0,5.0,80,0.00,,,0.00,Wunderground v.1.15,2013-03-29 11:19:00,
2013-03-29 04:24:00,53.9,47.9,30.08,NNW,342,1.0,4.0,80,0.00,,,0.00,Wunderground v.1.15,2013-03-29 11:24:00,
2013-03-29 04:29:00,53.8,47.8,30.08,NNW,342,1.0,5.0,80,0.00,,,0.00,Wunderground v.1.15,2013-03-29 11:29:00,
2013-03-29 04:34:00,53.6,47.9,30.08,NNW,342,2.0,4.0,81,0.00,,,0.00,Wunderground v.1.15,2013-03-29 11:34:00,
2013-03-29 04:39:00,53.5,47.8,30.08,NNW,342,0.0,4.0,81,0.00,,,0.00,Wunderground v.1.15,2013-03-29 11:39:00,
2013-03-29 04:44:00,53.5,47.8,30.08,NNW,342,0.0,3.0,81,0.00,,,0.00,Wunderground v.1.15,2013-03-29 11:44:00,
2013-03-29 04:49:00,53.4,47.7,30.08,NNW,342,0.0,3.0,81,0.00,,,0.00,Wunderground v.1.15,2013-03-29 11:49:00,
2013-03-29 04:54:00,53.3,47.6,30.09,NNW,342,0.0,2.0,81,0.00,,,0.00,Wunderground v.1.15,2013-03-29 11:54:00,
2013-03-29 04:59:00,53.3,47.6,30.09,NNW,342,0.0,2.0,81,0.00,,,0.00,Wunderground v.1.15,2013-03-29 11:59:00,
2013-03-29 05:04:00,53.2,47.5,30.09,NNW,342,0.0,1.0,81,0.00,,,0.00,Wunderground v.1.15,2013-03-29 12:04:00,
2013-03-29 05:09:00,53.1,47.7,30.09,NNW,342,0.0,3.0,82,0.00,,,0.00,Wunderground v.1.15,2013-03-29 12:09:00,
2013-03-29 05:14:00,53.1,47.7,30.09,NNW,342,0.0,0.0,82,0.00,,,0.00,Wunderground v.1.15,2013-03-29 12:14:00,
2013-03-29 05:19:00,53.0,47.7,30.09,NNW,342,0.0,0.0,82,0.00,,,0.00,Wunderground v.1.15,2013-03-29 12:19:00,
2013-03-29 05:24:00,52.9,47.6,30.09,NNW,342,1.0,2.0,82,0.00,,,0.00,Wunderground v.1.15,2013-03-29 12:24:00,
2013-03-29 05:29:00,52.8,47.5,30.09,NNW,342,0.0,2.0,82,0.00,,,0.00,Wunderground v.1.15,2013-03-29 12:29:00,
2013-03-29 05:34:00,52.8,47.5,30.09,NNW,342,1.0,1.0,82,0.00,,,0.00,Wunderground v.1.15,2013-03-29 12:34:00,
2013-03-29 05:39:00,52.7,47.4,30.08,NNW,342,0.0,2.0,82,0.00,,,0.00,Wunderground v.1.15,2013-03-29 12:39:00,
2013-03-29 05:44:00,52.6,47.6,30.09,NNW,342,1.0,2.0,83,0.00,,,0.00,Wunderground v.1.15,2013-03-29 12:44:00,
2013-03-29 05:49:00,52.6,47.6,30.09,NNW,342,0.0,2.0,83,0.00,,,0.00,Wunderground v.1.15,2013-03-29 12:49:00,
2013-03-29 05:54:00,52.5,47.5,30.09,NNW,342,1.0,1.0,83,0.00,,,0.00,Wunderground v.1.15,2013-03-29 12:54:00,
2013-03-29 05:59:00,52.5,47.5,30.09,NNW,342,0.0,2.0,83,0.00,,,0.00,Wunderground v.1.15,2013-03-29 12:59:00,
2013-03-29 06:04:00,52.4,47.4,30.09,NNW,342,0.0,1.0,83,0.00,,,0.00,Wunderground v.1.15,2013-03-29 13:04:00,
2013-03-29 06:09:00,52.4,47.4,30.09,NNW,342,0.0,3.0,83,0.00,,,0.00,Wunderground v.1.15,2013-03-29 13:09:00,
2013-03-29 06:14:00,52.4,47.4,30.09,NNW,342,1.0,2.0,83,0.00,,,0.00,Wunderground v.1.15,2013-03-29 13:14:00,
2013-03-29 06:19:00,52.3,47.3,30.09,NNW,342,1.0,2.0,83,0.00,,,0.00,Wunderground v.1.15,2013-03-29 13:19:00,
2013-03-29 06:24:00,52.3,47.3,30.09,NNW,342,0.0,3.0,83,0.00,,,0.00,Wunderground v.1.15,2013-03-29 13:24:00,
2013-03-29 06:29:00,52.2,47.2,30.09,NNW,342,0.0,3.0,83,0.00,,,0.00,Wunderground v.1.15,2013-03-29 13:29:00,
2013-03-29 06:35:00,52.2,47.5,30.09,NNW,342,0.0,2.0,84,0.00,,,0.00,Wunderground v.1.15,2013-03-29 13:35:00,
2013-03-29 06:40:00,52.2,47.5,30.09,NNW,342,1.0,1.0,84,0.00,,,0.00,Wunderground v.1.15,2013-03-29 13:40:00,
2013-03-29 06:45:00,52.2,47.5,30.09,NNW,342,2.0,3.0,84,0.00,,,0.00,Wunderground v.1.15,2013-03-29 13:45:00,
2013-03-29 06:49:00,52.2,47.5,30.09,NNW,342,2.0,3.0,84,0.00,,,0.00,Wunderground v.1.15,2013-03-29 13:49:00,
2013-03-29 06:54:00,52.2,47.5,30.09,NNW,342,1.0,2.0,84,0.00,,,0.00,Wunderground v.1.15,2013-03-29 13:54:00,
2013-03-29 06:59:00,52.3,47.6,30.09,NNW,342,1.0,4.0,84,0.00,,,0.00,Wunderground v.1.15,2013-03-29 13:59:00,
2013-03-29 07:05:00,52.4,47.7,30.09,NNW,342,2.0,4.0,84,0.00,,,0.00,Wunderground v.1.15,2013-03-29 14:05:00,
2013-03-29 07:10:00,52.5,47.5,30.09,NNW,342,2.0,2.0,83,0.00,,,0.00,Wunderground v.1.15,2013-03-29 14:10:00,
2013-03-29 07:15:00,52.6,47.6,30.09,NNW,342,1.0,4.0,83,0.00,,,0.00,Wunderground v.1.15,2013-03-29 14:15:00,
2013-03-29 07:20:00,52.8,47.8,30.09,NNW,342,2.0,3.0,83,0.00,,,0.00,Wunderground v.1.15,2013-03-29 14:20:00,
2013-03-29 07:25:00,53.0,48.0,30.09,NNW,342,1.0,5.0,83,0.00,,,0.00,Wunderground v.1.15,2013-03-29 14:25:00,
2013-03-29 07:30:00,53.1,47.7,30.09,NNW,342,4.0,5.0,82,0.00,,,0.00,Wunderground v.1.15,2013-03-29 14:30:00,
2013-03-29 07:35:00,53.2,47.8,30.09,NNW,342,1.0,5.0,82,0.00,,,0.00,Wunderground v.1.15,2013-03-29 14:35:00,
2013-03-29 07:40:00,53.5,48.1,30.10,NNW,342,2.0,3.0,82,0.00,,,0.00,Wunderground v.1.15,2013-03-29 14:40:00,
2013-03-29 07:45:00,53.7,48.3,30.10,NNW,342,2.0,5.0,82,0.00,,,0.00,Wunderground v.1.15,2013-03-29 14:45:00,
2013-03-29 07:50:00,54.1,48.4,30.10,NNW,343,4.0,6.0,81,0.00,,,0.00,Wunderground v.1.15,2013-03-29 14:50:00,
2013-03-29 07:55:00,54.5,48.5,30.09,NNW,348,4.0,8.0,80,0.00,,,0.00,Wunderground v.1.15,2013-03-29 14:55:00,
2013-03-29 08:00:00,54.9,48.8,30.09,North,351,1.0,4.0,80,0.00,,,0.00,Wunderground v.1.15,2013-03-29 15:00:00,
2013-03-29 08:05:00,55.3,48.9,30.10,North,355,4.0,7.0,79,0.00,,,0.00,Wunderground v.1.15,2013-03-29 15:05:00,
2013-03-29 08:10:00,55.7,48.9,30.10,North,360,7.0,7.0,78,0.00,,,0.00,Wunderground v.1.15,2013-03-29 15:10:00,
2013-03-29 08:15:00,56.1,49.3,30.10,NNW,331,2.0,7.0,78,0.00,,,0.00,Wunderground v.1.15,2013-03-29 15:15:00,
2013-03-29 08:20:00,56.5,49.4,30.10,North,355,5.0,5.0,77,0.00,,,0.00,Wunderground v.1.15,2013-03-29 15:20:00,
2013-03-29 08:25:00,56.9,49.4,30.10,North,355,4.0,8.0,76,0.00,,,0.00,Wunderground v.1.15,2013-03-29 15:25:00,
2013-03-29 08:30:00,57.4,49.9,30.10,NNW,340,5.0,6.0,76,0.00,,,0.00,Wunderground v.1.15,2013-03-29 15:30:00,
2013-03-29 08:35:00,57.9,50.0,30.10,North,349,3.0,8.0,75,0.00,,,0.00,Wunderground v.1.15,2013-03-29 15:35:00,
2013-03-29 08:40:00,58.5,50.2,30.10,North,355,2.0,5.0,74,0.00,,,0.00,Wunderground v.1.15,2013-03-29 15:40:00,
2013-03-29 08:45:00,58.9,50.3,30.10,NNE,32,4.0,11.0,73,0.00,,,0.00,Wunderground v.1.15,2013-03-29 15:45:00,
2013-03-29 08:50:00,59.3,50.3,30.10,NNE,15,6.0,9.0,72,0.00,,,0.00,Wunderground v.1.15,2013-03-29 15:50:00,
2013-03-29 08:55:00,59.7,50.7,30.10,NW,315,8.0,9.0,72,0.00,,,0.00,Wunderground v.1.15,2013-03-29 15:55:00,
2013-03-29 09:00:00,60.0,50.6,30.10,North,350,6.0,8.0,71,0.00,,,0.00,Wunderground v.1.15,2013-03-29 16:00:00,
2013-03-29 09:05:00,60.4,51.0,30.10,NNW,331,2.0,11.0,71,0.00,,,0.00,Wunderground v.1.15,2013-03-29 16:05:00,
2013-03-29 09:10:00,60.9,51.0,30.10,NW,322,4.0,8.0,70,0.00,,,0.00,Wunderground v.1.15,2013-03-29 16:10:00,
2013-03-29 09:15:00,61.3,51.0,30.10,NNE,12,7.0,9.0,69,0.00,,,0.00,Wunderground v.1.15,2013-03-29 16:15:00,
2013-03-29 09:20:00,61.6,50.9,30.10,North,355,11.0,13.0,68,0.00,,,0.00,Wunderground v.1.15,2013-03-29 16:20:00,
2013-03-29 09:25:00,62.0,50.9,30.10,NNW,344,10.0,13.0,67,0.00,,,0.00,Wunderground v.1.15,2013-03-29 16:25:00,
2013-03-29 09:30:00,62.3,50.4,30.10,North,360,9.0,11.0,65,0.00,,,0.00,Wunderground v.1.15,2013-03-29 16:30:00,
2013-03-29 09:35:00,62.6,51.1,30.10,North,351,6.0,11.0,66,0.00,,,0.00,Wunderground v.1.15,2013-03-29 16:35:00,
2013-03-29 09:40:00,63.0,50.6,30.10,NW,325,6.0,14.0,64,0.00,,,0.00,Wunderground v.1.15,2013-03-29 16:40:00,
2013-03-29 09:45:00,63.2,50.8,30.10,NNW,344,16.0,16.0,64,0.00,,,0.00,Wunderground v.1.15,2013-03-29 16:45:00,
2013-03-29 09:50:00,63.3,50.5,30.10,North,350,7.0,11.0,63,0.00,,,0.00,Wunderground v.1.15,2013-03-29 16:50:00,
2013-03-29 09:55:00,63.6,51.2,30.10,North,355,5.0,11.0,64,0.00,,,0.00,Wunderground v.1.15,2013-03-29 16:55:00,
2013-03-29 10:00:00,64.0,51.1,30.10,NW,325,7.0,8.0,63,0.00,,,0.00,Wunderground v.1.15,2013-03-29 17:00:00,
2013-03-29 10:05:00,64.0,50.7,30.10,North,360,10.0,14.0,62,0.00,,,0.00,Wunderground v.1.15,2013-03-29 17:05:00,
2013-03-29 10:24:00,64.8,51.5,30.10,North,360,5.0,13.0,62,0.00,,,0.00,Wunderground v.1.15,2013-03-29 17:24:00,
2013-03-29 10:29:00,65.0,51.7,30.10,NNW,339,10.0,14.0,62,0.00,,,0.00,Wunderground v.1.15,2013-03-29 17:29:00,
2013-03-29 10:34:00,65.4,51.6,30.10,NNW,344,7.0,10.0,61,0.00,,,0.00,Wunderground v.1.15,2013-03-29 17:34:00,
2013-03-29 10:39:00,65.4,51.1,30.10,North,360,8.0,15.0,60,0.00,,,0.00,Wunderground v.1.15,2013-03-29 17:39:00,
2013-03-29 10:44:00,65.7,51.4,30.10,NNW,343,10.0,10.0,60,0.00,,,0.00,Wunderground v.1.15,2013-03-29 17:44:00,
2013-03-29 10:49:00,66.0,51.3,30.10,NNW,332,4.0,15.0,59,0.00,,,0.00,Wunderground v.1.15,2013-03-29 17:49:00,
2013-03-29 10:54:00,66.3,51.5,30.10,NNW,346,5.0,14.0,59,0.00,,,0.00,Wunderground v.1.15,2013-03-29 17:54:00,
2013-03-29 10:59:00,66.6,51.4,30.10,NNE,18,15.0,15.0,58,0.00,,,0.00,Wunderground v.1.15,2013-03-29 17:59:00,
2013-03-29 11:04:00,66.8,51.5,30.10,North,355,7.0,16.0,58,0.00,,,0.00,Wunderground v.1.15,2013-03-29 18:04:00,
2013-03-29 11:09:00,66.9,51.2,30.10,NW,325,5.0,16.0,57,0.00,,,0.00,Wunderground v.1.15,2013-03-29 18:09:00,
2013-03-29 11:14:00,67.2,51.4,30.10,NNW,339,7.0,14.0,57,0.00,,,0.00,Wunderground v.1.15,2013-03-29 18:14:00,
2013-03-29 11:19:00,67.5,51.7,30.10,NE,34,3.0,14.0,57,0.00,,,0.00,Wunderground v.1.15,2013-03-29 18:19:00,
2013-03-29 11:24:00,68.5,51.7,30.10,North,355,4.0,13.0,55,0.00,,,0.00,Wunderground v.1.15,2013-03-29 18:24:00,
2013-03-29 11:29:00,68.4,52.1,30.10,North,360,5.0,13.0,56,0.00,,,0.00,Wunderground v.1.15,2013-03-29 18:29:00,
2013-03-29 11:34:00,68.5,51.7,30.10,NNW,337,9.0,13.0,55,0.00,,,0.00,Wunderground v.1.15,2013-03-29 18:34:00,
2013-03-29 11:39:00,68.4,51.6,30.10,North,355,5.0,13.0,55,0.00,,,0.00,Wunderground v.1.15,2013-03-29 18:39:00,
2013-03-29 11:44:00,69.0,52.2,30.10,NW,316,5.0,12.0,55,0.00,,,0.00,Wunderground v.1.15,2013-03-29 18:44:00,
2013-03-29 11:49:00,69.3,51.9,30.10,NW,319,2.0,12.0,54,0.00,,,0.00,Wunderground v.1.15,2013-03-29 18:49:00,
2013-03-29 11:54:00,69.7,52.3,30.10,North,10,4.0,10.0,54,0.00,,,0.00,Wunderground v.1.15,2013-03-29 18:54:00,
2013-03-29 11:59:00,69.6,51.7,30.09,NE,43,7.0,12.0,53,0.00,,,0.00,Wunderground v.1.15,2013-03-29 18:59:00,
2013-03-29 12:04:00,69.8,51.9,30.09,North,355,8.0,12.0,53,0.00,,,0.00,Wunderground v.1.15,2013-03-29 19:04:00,
2013-03-29 12:09:00,69.8,51.9,30.09,North,350,4.0,14.0,53,0.00,,,0.00,Wunderground v.1.15,2013-03-29 19:09:00,
2013-03-29 12:14:00,70.2,51.7,30.09,NNW,328,9.0,12.0,52,0.00,,,0.00,Wunderground v.1.15,2013-03-29 19:14:00,
2013-03-29 12:19:00,70.5,52.5,30.09,NNW,347,7.0,12.0,53,0.00,,,0.00,Wunderground v.1.15,2013-03-29 19:19:00,
2013-03-29 12:24:00,71.0,52.5,30.09,NNE,16,3.0,12.0,52,0.00,,,0.00,Wunderground v.1.15,2013-03-29 19:24:00,
2013-03-29 12:29:00,70.8,51.8,30.09,NE,48,6.0,12.0,51,0.00,,,0.00,Wunderground v.1.15,2013-03-29 19:29:00,
2013-03-29 12:34:00,71.0,52.5,30.09,NE,37,6.0,12.0,52,0.00,,,0.00,Wunderground v.1.15,2013-03-29 19:34:00,
2013-03-29 12:39:00,70.9,51.9,30.08,NE,44,6.0,12.0,51,0.00,,,0.00,Wunderground v.1.15,2013-03-29 19:39:00,
2013-03-29 12:44:00,71.1,51.5,30.08,NNE,13,5.0,10.0,50,0.00,,,0.00,Wunderground v.1.15,2013-03-29 19:44:00,
2013-03-29 12:49:00,71.3,51.7,30.08,NNE,22,7.0,13.0,50,0.00,,,0.00,Wunderground v.1.15,2013-03-29 19:49:00,
2013-03-29 12:54:00,71.7,52.1,30.08,North,350,5.0,10.0,50,0.00,,,0.00,Wunderground v.1.15,2013-03-29 19:54:00,
2013-03-29 12:59:00,71.9,51.7,30.08,NNW,343,9.0,12.0,49,0.00,,,0.00,Wunderground v.1.15,2013-03-29 19:59:00,
2013-03-29 13:04:00,72.3,52.1,30.08,NW,323,7.0,11.0,49,0.00,,,0.00,Wunderground v.1.15,2013-03-29 20:04:00,
2013-03-29 13:09:00,72.4,51.6,30.08,North,5,4.0,11.0,48,0.00,,,0.00,Wunderground v.1.15,2013-03-29 20:09:00,
2013-03-29 13:14:00,72.6,52.3,30.08,NNW,339,6.0,11.0,49,0.00,,,0.00,Wunderground v.1.15,2013-03-29 20:14:00,
2013-03-29 13:19:00,73.0,52.7,30.07,NNE,20,3.0,11.0,49,0.00,,,0.00,Wunderground v.1.15,2013-03-29 20:19:00,
2013-03-29 13:24:00,72.9,52.1,30.07,North,10,8.0,9.0,48,0.00,,,0.00,Wunderground v.1.15,2013-03-29 20:24:00,
2013-03-29 13:29:00,73.1,52.8,30.07,NE,49,6.0,9.0,49,0.00,,,0.00,Wunderground v.1.15,2013-03-29 20:29:00,
2013-03-29 13:34:00,73.2,52.3,30.07,NNE,15,4.0,10.0,48,0.00,,,0.00,Wunderground v.1.15,2013-03-29 20:34:00,
2013-03-29 13:39:00,73.3,53.0,30.07,NNW,334,4.0,10.0,49,0.00,,,0.00,Wunderground v.1.15,2013-03-29 20:39:00,
2013-03-29 13:44:00,73.7,52.8,30.07,NE,40,3.0,11.0,48,0.00,,,0.00,Wunderground v.1.15,2013-03-29 20:44:00,
2013-03-29 13:49:00,73.9,53.0,30.07,ENE,64,9.0,11.0,48,0.00,,,0.00,Wunderground v.1.15,2013-03-29 20:49:00,
2013-03-29 13:54:00,73.9,52.4,30.07,NNW,345,5.0,9.0,47,0.00,,,0.00,Wunderground v.1.15,2013-03-29 20:54:00,
2013-03-29 13:59:00,74.1,52.6,30.06,NE,34,7.0,9.0,47,0.00,,,0.00,Wunderground v.1.15,2013-03-29 20:59:00,
2013-03-29 14:04:00,73.7,52.8,30.06,NNE,17,5.0,12.0,48,0.00,,,0.00,Wunderground v.1.15,2013-03-29 21:04:00,
2013-03-29 14:09:00,73.9,53.0,30.06,NNE,28,2.0,12.0,48,0.00,,,0.00,Wunderground v.1.15,2013-03-29 21:09:00,
2013-03-29 14:14:00,74.4,52.3,30.06,North,360,5.0,6.0,46,0.00,,,0.00,Wunderground v.1.15,2013-03-29 21:14:00,
2013-03-29 14:19:00,74.4,52.3,30.06,NNE,17,2.0,7.0,46,0.00,,,0.00,Wunderground v.1.15,2013-03-29 21:19:00,
2013-03-29 14:24:00,74.3,51.6,30.05,NNE,24,3.0,8.0,45,0.00,,,0.00,Wunderground v.1.15,2013-03-29 21:24:00,
2013-03-29 14:29:00,74.0,51.9,30.05,NNE,15,6.0,8.0,46,0.00,,,0.00,Wunderground v.1.15,2013-03-29 21:29:00,
2013-03-29 14:34:00,73.9,51.8,30.05,NNE,15,2.0,5.0,46,0.00,,,0.00,Wunderground v.1.15,2013-03-29 21:34:00,
2013-03-29 14:39:00,74.4,52.3,30.05,NNE,26,1.0,5.0,46,0.00,,,0.00,Wunderground v.1.15,2013-03-29 21:39:00,
2013-03-29 14:44:00,74.6,53.0,30.05,North,5,2.0,9.0,47,0.00,,,0.00,Wunderground v.1.15,2013-03-29 21:44:00,
2013-03-29 14:49:00,74.5,53.5,30.04,North,9,6.0,9.0,48,0.00,,,0.00,Wunderground v.1.15,2013-03-29 21:49:00,
2013-03-29 14:54:00,74.5,52.4,30.04,NNE,17,2.0,6.0,46,0.00,,,0.00,Wunderground v.1.15,2013-03-29 21:54:00,
2013-03-29 14:59:00,74.8,52.6,30.04,NNE,17,2.0,6.0,46,0.00,,,0.00,Wunderground v.1.15,2013-03-29 21:59:00,
2013-03-29 15:04:00,75.9,52.4,30.04,NNE,17,2.0,6.0,44,0.00,,,0.00,Wunderground v.1.15,2013-03-29 22:04:00,
2013-03-29 15:09:00,75.9,52.4,30.03,NNE,17,4.0,6.0,44,0.00,,,0.00,Wunderground v.1.15,2013-03-29 22:09:00,
2013-03-29 15:14:00,76.2,53.3,30.03,North,355,2.0,5.0,45,0.00,,,0.00,Wunderground v.1.15,2013-03-29 22:14:00,
2013-03-29 15:19:00,76.4,52.9,30.03,North,351,2.0,5.0,44,0.00,,,0.00,Wunderground v.1.15,2013-03-29 22:19:00,
2013-03-29 15:23:00,76.3,52.8,30.03,NNE,26,3.0,6.0,44,0.00,,,0.00,Wunderground v.1.15,2013-03-29 22:23:00,
2013-03-29 15:28:00,76.9,53.3,30.03,NE,53,1.0,6.0,44,0.00,,,0.00,Wunderground v.1.15,2013-03-29 22:28:00,
2013-03-29 15:33:00,76.9,53.3,30.03,NE,53,2.0,4.0,44,0.00,,,0.00,Wunderground v.1.15,2013-03-29 22:33:00,
2013-03-29 15:38:00,76.4,53.5,30.02,ENE,59,0.0,4.0,45,0.00,,,0.00,Wunderground v.1.15,2013-03-29 22:38:00,
2013-03-29 15:43:00,76.4,52.2,30.02,NNE,31,0.0,4.0,43,0.00,,,0.00,Wunderground v.1.15,2013-03-29 22:43:00,
2013-03-29 15:48:00,76.6,51.8,30.02,NNE,26,2.0,4.0,42,0.00,,,0.00,Wunderground v.1.15,2013-03-29 22:48:00,
2013-03-29 15:53:00,76.9,52.1,30.02,ENE,66,1.0,4.0,42,0.00,,,0.00,Wunderground v.1.15,2013-03-29 22:53:00,
2013-03-29 15:58:00,77.3,53.1,30.02,ENE,71,0.0,4.0,43,0.00,,,0.00,Wunderground v.1.15,2013-03-29 22:58:00,
2013-03-29 16:03:00,77.0,51.5,30.02,East,90,2.0,6.0,41,0.00,,,0.00,Wunderground v.1.15,2013-03-29 23:03:00,
2013-03-29 16:08:00,76.1,52.6,30.02,East,92,1.0,6.0,44,0.00,,,0.00,Wunderground v.1.15,2013-03-29 23:08:00,
2013-03-29 16:13:00,77.2,51.7,30.02,ESE,115,2.0,5.0,41,0.00,,,0.00,Wunderground v.1.15,2013-03-29 23:13:00,
2013-03-29 16:18:00,78.0,52.4,30.02,ESE,119,3.0,5.0,41,0.00,,,0.00,Wunderground v.1.15,2013-03-29 23:18:00,
2013-03-29 16:23:00,78.4,51.4,30.02,ESE,121,4.0,4.0,39,0.00,,,0.00,Wunderground v.1.15,2013-03-29 23:23:00,
2013-03-29 16:28:00,77.5,51.3,30.01,ESE,122,1.0,4.0,40,0.00,,,0.00,Wunderground v.1.15,2013-03-29 23:28:00,
2013-03-29 16:33:00,76.9,52.1,30.01,ESE,122,1.0,2.0,42,0.00,,,0.00,Wunderground v.1.15,2013-03-29 23:33:00,
2013-03-29 16:38:00,76.9,53.3,30.01,ESE,122,2.0,5.0,44,0.00,,,0.00,Wunderground v.1.15,2013-03-29 23:38:00,
2013-03-29 16:43:00,77.6,52.7,30.01,ESE,122,1.0,1.0,42,0.00,,,0.00,Wunderground v.1.15,2013-03-29 23:43:00,
2013-03-29 16:48:00,77.0,52.8,30.01,ESE,113,3.0,4.0,43,0.00,,,0.00,Wunderground v.1.15,2013-03-29 23:48:00,
2013-03-29 16:53:00,77.5,52.6,30.01,ESE,113,1.0,2.0,42,0.00,,,0.00,Wunderground v.1.15,2013-03-29 23:53:00,
2013-03-29 16:58:00,77.4,51.2,30.01,ESE,113,3.0,4.0,40,0.00,,,0.00,Wunderground v.1.15,2013-03-29 23:58:00,
2013-03-29 17:03:00,77.6,52.0,30.01,ESE,113,1.0,2.0,41,0.00,,,0.00,Wunderground v.1.15,2013-03-30 00:03:00,
2013-03-29 17:08:00,77.3,51.8,30.01,ESE,113,1.0,3.0,41,0.00,,,0.00,Wunderground v.1.15,2013-03-30 00:08:00,
2013-03-29 17:13:00,77.1,51.6,30.01,ESE,113,1.0,4.0,41,0.00,,,0.00,Wunderground v.1.15,2013-03-30 00:13:00,
2013-03-29 17:18:00,76.9,52.1,30.01,ESE,113,1.0,4.0,42,0.00,,,0.00,Wunderground v.1.15,2013-03-30 00:18:00,
2013-03-29 17:23:00,77.2,51.7,30.01,ESE,113,1.0,3.0,41,0.00,,,0.00,Wunderground v.1.15,2013-03-30 00:23:00,
2013-03-29 17:28:00,77.2,52.3,30.01,ESE,113,3.0,4.0,42,0.00,,,0.00,Wunderground v.1.15,2013-03-30 00:28:00,
2013-03-29 17:33:00,76.7,52.5,30.01,ESE,113,0.0,2.0,43,0.00,,,0.00,Wunderground v.1.15,2013-03-30 00:33:00,
2013-03-29 17:38:00,76.9,52.1,30.00,ESE,113,3.0,4.0,42,0.00,,,0.00,Wunderground v.1.15,2013-03-30 00:38:00,
2013-03-29 17:43:00,76.8,52.0,30.00,ESE,113,3.0,4.0,42,0.00,,,0.00,Wunderground v.1.15,2013-03-30 00:43:00,
2013-03-29 17:48:00,77.2,52.3,30.00,ESE,113,1.0,4.0,42,0.00,,,0.00,Wunderground v.1.15,2013-03-30 00:48:00,
2013-03-29 17:53:00,77.4,51.9,30.00,ESE,113,0.0,2.0,41,0.00,,,0.00,Wunderground v.1.15,2013-03-30 00:53:00,
2013-03-29 17:58:00,77.3,52.4,30.00,ESE,113,2.0,2.0,42,0.00,,,0.00,Wunderground v.1.15,2013-03-30 00:58:00,
2013-03-29 18:03:00,77.2,51.7,30.00,ESE,113,2.0,3.0,41,0.00,,,0.00,Wunderground v.1.15,2013-03-30 01:03:00,
2013-03-29 18:08:00,77.1,50.9,30.00,ENE,78,3.0,6.0,40,0.00,,,0.00,Wunderground v.1.15,2013-03-30 01:08:00,
2013-03-29 18:13:00,77.0,50.8,30.00,NNE,33,1.0,5.0,40,0.00,,,0.00,Wunderground v.1.15,2013-03-30 01:13:00,
2013-03-29 18:18:00,76.8,51.3,30.00,NNE,12,1.0,5.0,41,0.00,,,0.00,Wunderground v.1.15,2013-03-30 01:18:00,
2013-03-29 18:23:00,76.7,51.2,30.00,NNE,12,0.0,3.0,41,0.00,,,0.00,Wunderground v.1.15,2013-03-30 01:23:00,
2013-03-29 18:28:00,76.6,51.1,30.00,NNE,12,0.0,3.0,41,0.00,,,0.00,Wunderground v.1.15,2013-03-30 01:28:00,
2013-03-29 18:33:00,76.5,51.0,30.00,NNE,12,0.0,3.0,41,0.00,,,0.00,Wunderground v.1.15,2013-03-30 01:33:00,
2013-03-29 18:38:00,76.3,50.9,30.00,NNE,12,2.0,3.0,41,0.00,,,0.00,Wunderground v.1.15,2013-03-30 01:38:00,
2013-03-29 18:43:00,76.1,50.7,30.00,NNE,12,0.0,3.0,41,0.00,,,0.00,Wunderground v.1.15,2013-03-30 01:43:00,
2013-03-29 18:48:00,76.0,50.6,30.00,NNE,12,0.0,3.0,41,0.00,,,0.00,Wunderground v.1.15,2013-03-30 01:48:00,
2013-03-29 18:53:00,75.9,51.2,30.00,NNE,12,0.0,2.0,42,0.00,,,0.00,Wunderground v.1.15,2013-03-30 01:53:00,
2013-03-29 18:58:00,75.7,51.0,30.00,NNE,12,1.0,3.0,42,0.00,,,0.00,Wunderground v.1.15,2013-03-30 01:58:00,
2013-03-29 19:03:00,75.6,50.9,30.00,NNE,12,0.0,1.0,42,0.00,,,0.00,Wunderground v.1.15,2013-03-30 02:03:00,
2013-03-29 19:08:00,75.5,50.8,29.99,NNE,12,0.0,1.0,42,0.00,,,0.00,Wunderground v.1.15,2013-03-30 02:08:00,
2013-03-29 19:13:00,75.5,51.4,30.00,NNE,12,0.0,1.0,43,0.00,,,0.00,Wunderground v.1.15,2013-03-30 02:13:00,
2013-03-29 19:18:00,75.2,52.4,30.00,NNE,12,1.0,2.0,45,0.00,,,0.00,Wunderground v.1.15,2013-03-30 02:18:00,
2013-03-29 19:23:00,75.0,52.8,30.00,NNE,12,0.0,3.0,46,0.00,,,0.00,Wunderground v.1.15,2013-03-30 02:23:00,
2013-03-29 19:28:00,74.6,53.0,30.00,NNE,12,2.0,3.0,47,0.00,,,0.00,Wunderground v.1.15,2013-03-30 02:28:00,
2013-03-29 19:33:00,74.3,53.3,30.00,NNE,12,1.0,3.0,48,0.00,,,0.00,Wunderground v.1.15,2013-03-30 02:33:00,
2013-03-29 19:38:00,74.0,53.1,30.00,NNE,12,0.0,3.0,48,0.00,,,0.00,Wunderground v.1.15,2013-03-30 02:38:00,
2013-03-29 19:43:00,73.7,53.3,30.00,NNE,12,1.0,2.0,49,0.00,,,0.00,Wunderground v.1.15,2013-03-30 02:43:00,
2013-03-29 19:48:00,73.3,53.5,30.00,NNE,12,2.0,2.0,50,0.00,,,0.00,Wunderground v.1.15,2013-03-30 02:48:00,
2013-03-29 19:53:00,72.7,53.0,30.00,NNE,12,1.0,3.0,50,0.00,,,0.00,Wunderground v.1.15,2013-03-30 02:53:00,
2013-03-29 19:58:00,72.2,53.6,30.00,NNE,12,3.0,3.0,52,0.00,,,0.00,Wunderground v.1.15,2013-03-30 02:58:00,
2013-03-29 20:03:00,71.6,53.6,30.00,NNE,12,2.0,3.0,53,0.00,,,0.00,Wunderground v.1.15,2013-03-30 03:03:00,
2013-03-29 20:08:00,71.1,53.6,30.00,NNE,12,1.0,3.0,54,0.00,,,0.00,Wunderground v.1.15,2013-03-30 03:08:00,
2013-03-29 20:13:00,70.6,53.6,30.00,NNE,12,1.0,3.0,55,0.00,,,0.00,Wunderground v.1.15,2013-03-30 03:13:00,
2013-03-29 20:18:00,70.0,53.6,30.00,NNE,12,0.0,3.0,56,0.00,,,0.00,Wunderground v.1.15,2013-03-30 03:18:00,
2013-03-29 20:23:00,69.8,53.4,30.00,NNE,12,1.0,1.0,56,0.00,,,0.00,Wunderground v.1.15,2013-03-30 03:23:00,
2013-03-29 20:28:00,69.5,53.6,30.00,NNE,12,0.0,1.0,57,0.00,,,0.00,Wunderground v.1.15,2013-03-30 03:28:00,
2013-03-29 20:33:00,69.2,53.3,30.00,NNE,12,0.0,0.0,57,0.00,,,0.00,Wunderground v.1.15,2013-03-30 03:33:00,
2013-03-29 20:38:00,69.0,53.6,30.01,NNE,12,0.0,1.0,58,0.00,,,0.00,Wunderground v.1.15,2013-03-30 03:38:00,
2013-03-29 20:43:00,68.7,53.8,30.01,NNE,12,0.0,1.0,59,0.00,,,0.00,Wunderground v.1.15,2013-03-30 03:43:00,
2013-03-29 20:48:00,68.5,53.6,30.01,NNE,12,2.0,2.0,59,0.00,,,0.00,Wunderground v.1.15,2013-03-30 03:48:00,
2013-03-29 20:53:00,68.4,53.5,30.01,NNE,12,0.0,2.0,59,0.00,,,0.00,Wunderground v.1.15,2013-03-30 03:53:00,
2013-03-29 20:58:00,68.2,53.8,30.01,NNE,12,0.0,2.0,60,0.00,,,0.00,Wunderground v.1.15,2013-03-30 03:58:00,
2013-03-29 21:00:00,68.1,53.7,30.02,NNE,12,1.0,1.0,60,0.00,,,0.00,Wunderground v.1.15,2013-03-30 04:00:00,
2013-03-29 21:05:00,67.9,53.5,30.02,NNE,12,1.0,2.0,60,0.00,,,0.00,Wunderground v.1.15,2013-03-30 04:05:00,
2013-03-29 21:10:00,67.6,53.2,30.02,NNE,12,1.0,1.0,60,0.00,,,0.00,Wunderground v.1.15,2013-03-30 04:10:00,
2013-03-29 21:15:00,67.4,53.5,30.02,NNE,12,1.0,2.0,61,0.00,,,0.00,Wunderground v.1.15,2013-03-30 04:15:00,
2013-03-29 21:20:00,67.2,53.3,30.02,NNE,12,2.0,2.0,61,0.00,,,0.00,Wunderground v.1.15,2013-03-30 04:20:00,
2013-03-29 21:25:00,66.9,53.0,30.02,NNE,12,0.0,2.0,61,0.00,,,0.00,Wunderground v.1.15,2013-03-30 04:25:00,
2013-03-29 21:30:00,66.7,53.3,30.02,NNE,12,0.0,1.0,62,0.00,,,0.00,Wunderground v.1.15,2013-03-30 04:30:00,
2013-03-29 21:35:00,66.5,53.1,30.02,NNE,12,1.0,3.0,62,0.00,,,0.00,Wunderground v.1.15,2013-03-30 04:35:00,
2013-03-29 21:40:00,66.2,53.2,30.02,NNE,12,1.0,1.0,63,0.00,,,0.00,Wunderground v.1.15,2013-03-30 04:40:00,
2013-03-29 21:45:00,66.0,53.0,30.03,NNE,12,1.0,1.0,63,0.00,,,0.00,Wunderground v.1.15,2013-03-30 04:45:00,
2013-03-29 21:50:00,65.7,52.8,30.02,NNE,12,1.0,2.0,63,0.00,,,0.00,Wunderground v.1.15,2013-03-30 04:50:00,
2013-03-29 21:55:00,65.5,53.0,30.02,NNE,12,0.0,2.0,64,0.00,,,0.00,Wunderground v.1.15,2013-03-30 04:55:00,
2013-03-29 22:00:00,65.3,52.8,30.03,NNE,12,0.0,0.0,64,0.00,,,0.00,Wunderground v.1.15,2013-03-30 05:00:00,
2013-03-29 22:05:00,65.1,52.6,30.03,NNE,12,1.0,2.0,64,0.00,,,0.00,Wunderground v.1.15,2013-03-30 05:05:00,
2013-03-29 22:10:00,64.9,52.4,30.03,NNE,12,1.0,2.0,64,0.00,,,0.00,Wunderground v.1.15,2013-03-30 05:10:00,
2013-03-29 22:15:00,64.8,52.3,30.02,NNE,12,0.0,2.0,64,0.00,,,0.00,Wunderground v.1.15,2013-03-30 05:15:00,
2013-03-29 22:20:00,64.7,52.2,30.02,NNE,12,0.0,0.0,64,0.00,,,0.00,Wunderground v.1.15,2013-03-30 05:20:00,
2013-03-29 22:25:00,64.6,52.1,30.02,NNE,12,0.0,2.0,64,0.00,,,0.00,Wunderground v.1.15,2013-03-30 05:25:00,
2013-03-29 22:30:00,64.5,52.0,30.02,NNE,12,0.0,1.0,64,0.00,,,0.00,Wunderground v.1.15,2013-03-30 05:30:00,
2013-03-29 22:35:00,64.4,52.4,30.02,NNE,12,0.0,2.0,65,0.00,,,0.00,Wunderground v.1.15,2013-03-30 05:35:00,
2013-03-29 22:40:00,64.3,52.3,30.02,NNE,12,0.0,0.0,65,0.00,,,0.00,Wunderground v.1.15,2013-03-30 05:40:00,
2013-03-29 22:45:00,64.2,52.2,30.02,NNE,12,1.0,2.0,65,0.00,,,0.00,Wunderground v.1.15,2013-03-30 05:45:00,
2013-03-29 22:50:00,64.0,51.6,30.02,NNE,12,1.0,2.0,64,0.00,,,0.00,Wunderground v.1.15,2013-03-30 05:50:00,
2013-03-29 22:55:00,63.9,51.9,30.03,NNE,12,2.0,2.0,65,0.00,,,0.00,Wunderground v.1.15,2013-03-30 05:55:00,
2013-03-29 23:00:00,63.7,51.7,30.03,NNE,12,1.0,1.0,65,0.00,,,0.00,Wunderground v.1.15,2013-03-30 06:00:00,
2013-03-29 23:05:00,63.6,51.6,30.02,NNE,12,2.0,3.0,65,0.00,,,0.00,Wunderground v.1.15,2013-03-30 06:05:00,
2013-03-29 23:10:00,63.4,51.4,30.02,NNE,12,1.0,1.0,65,0.00,,,0.00,Wunderground v.1.15,2013-03-30 06:10:00,
2013-03-29 23:15:00,63.3,51.3,30.02,NNE,12,0.0,2.0,65,0.00,,,0.00,Wunderground v.1.15,2013-03-30 06:15:00,
2013-03-29 23:20:00,63.1,51.1,30.02,NNE,12,2.0,2.0,65,0.00,,,0.00,Wunderground v.1.15,2013-03-30 06:20:00,
2013-03-29 23:25:00,63.0,51.0,30.02,NNE,12,1.0,2.0,65,0.00,,,0.00,Wunderground v.1.15,2013-03-30 06:25:00,
2013-03-29 23:30:00,62.8,51.3,30.02,NNE,12,0.0,1.0,66,0.00,,,0.00,Wunderground v.1.15,2013-03-30 06:30:00,
2013-03-29 23:35:00,62.7,51.2,30.02,NNE,12,0.0,2.0,66,0.00,,,0.00,Wunderground v.1.15,2013-03-30 06:35:00,
2013-03-29 23:40:00,62.6,51.1,30.02,NNE,12,0.0,0.0,66,0.00,,,0.00,Wunderground v.1.15,2013-03-30 06:40:00,
2013-03-29 23:45:00,62.4,50.9,30.02,NNE,12,1.0,2.0,66,0.00,,,0.00,Wunderground v.1.15,2013-03-30 06:45:00,
2013-03-29 23:50:00,62.3,50.8,30.02,NNE,12,0.0,1.0,66,0.00,,,0.00,Wunderground v.1.15,2013-03-30 06:50:00,
2013-03-29 23:55:00,62.1,51.0,30.02,NNE,12,1.0,2.0,67,0.00,,,0.00,Wunderground v.1.15,2013-03-30 06:55:00,